NRL64P CYHZ-KATL

Flight info

Callsign NRL64P
Flight time N/A
Altitude 30000
Route YHZ DCT ENE DCT BAF/N0476F320 DCT BWZ DCT MOL DCT FLASK OZZZI2
Aircraft B738/M-SDE2E3FGHIRWXY/LB1

Departure

Time 2025-12-30 02:55
Airport Halifax / Stanfield International Airport (CYHZ)

Arrival

Time N/A
Airport Hartsfield Jackson Atlanta International Airport (KATL)
Time Latitude Longitude Altitude Speed Heading
2025-12-30 02:04 44.88805 -63.51426 451 ft 0 kts 260°
2025-12-30 02:41 44.88808 -63.51374 448 ft 3 kts 271°
2025-12-30 02:41 44.88799 -63.51289 448 ft 3 kts 288°
2025-12-30 02:42 44.88792 -63.51263 448 ft 3 kts 293°
2025-12-30 02:42 44.88774 -63.51211 449 ft 3 kts 296°
2025-12-30 02:43 44.88765 -63.51167 450 ft 1 kts 260°
2025-12-30 02:48 44.88764 -63.51177 449 ft 3 kts 264°
2025-12-30 02:48 44.88777 -63.51240 449 ft 9 kts 299°
2025-12-30 02:49 44.88931 -63.51323 451 ft 6 kts 350°
2025-12-30 02:50 44.89011 -63.51394 451 ft 9 kts 306°
2025-12-30 02:50 44.89082 -63.51538 451 ft 9 kts 306°
2025-12-30 02:51 44.89152 -63.51679 451 ft 9 kts 304°
2025-12-30 02:51 44.89221 -63.51816 451 ft 8 kts 306°
2025-12-30 02:52 44.89285 -63.51834 451 ft 0 kts 28°
2025-12-30 02:52 44.89290 -63.51830 450 ft 3 kts 30°
2025-12-30 02:52 44.89322 -63.51799 450 ft 8 kts 35°
2025-12-30 02:53 44.89349 -63.51696 452 ft 0 kts 124°
2025-12-30 02:54 44.88872 -63.50740 449 ft 121 kts 125°
2025-12-30 02:54 44.88292 -63.49605 736 ft 152 kts 127°
2025-12-30 02:55 44.86963 -63.47236 2319 ft 165 kts 141°
2025-12-30 02:55 44.84960 -63.45346 2985 ft 184 kts 174°
2025-12-30 02:56 44.82409 -63.46667 3612 ft 228 kts 222°
2025-12-30 02:56 44.80898 -63.50831 5168 ft 243 kts 240°
2025-12-30 02:57 44.79648 -63.55298 6723 ft 247 kts 241°
2025-12-30 02:57 44.77732 -63.62050 9042 ft 250 kts 241°
2025-12-30 02:58 44.76423 -63.66593 10330 ft 258 kts 242°
2025-12-30 02:58 44.74946 -63.71652 10684 ft 300 kts 242°
2025-12-30 02:59 44.74127 -63.74458 10841 ft 320 kts 243°
2025-12-30 02:59 44.72342 -63.80585 11159 ft 355 kts 243°
2025-12-30 03:00 44.70444 -63.87109 12192 ft 363 kts 244°
2025-12-30 03:00 44.68842 -63.92594 13190 ft 367 kts 244°
2025-12-30 03:01 44.66884 -63.99255 14236 ft 369 kts 244°
2025-12-30 03:01 44.63870 -64.09263 15821 ft 372 kts 244°
2025-12-30 03:02 44.61822 -64.15985 16788 ft 376 kts 244°
2025-12-30 03:02 44.59763 -64.22735 17643 ft 381 kts 244°
2025-12-30 03:03 44.58716 -64.26165 18007 ft 383 kts 244°
2025-12-30 03:03 44.56605 -64.33070 18763 ft 387 kts 243°
2025-12-30 03:04 44.54463 -64.40058 19466 ft 392 kts 243°
2025-12-30 03:04 44.52295 -64.47116 20165 ft 396 kts 243°
2025-12-30 03:04 44.51202 -64.50667 20525 ft 398 kts 243°
2025-12-30 03:05 44.46778 -64.64988 21938 ft 403 kts 242°
2025-12-30 03:06 44.44541 -64.72201 22612 ft 405 kts 242°
2025-12-30 03:06 44.42291 -64.79434 23201 ft 406 kts 242°
2025-12-30 03:07 44.40027 -64.86691 23733 ft 408 kts 242°
2025-12-30 03:07 44.38891 -64.90325 23987 ft 408 kts 242°
2025-12-30 03:08 44.36608 -64.97614 24499 ft 410 kts 242°
2025-12-30 03:08 44.34313 -65.04918 24997 ft 410 kts 242°
2025-12-30 03:09 44.32037 -65.12148 25560 ft 407 kts 241°
2025-12-30 03:11 44.23125 -65.40256 28578 ft 385 kts 241°
2025-12-30 03:13 44.14440 -65.67343 29255 ft 381 kts 240°
2025-12-30 03:15 44.05724 -65.94249 29198 ft 382 kts 239°
2025-12-30 03:16 43.98021 -66.17813 29172 ft 384 kts 238°
2025-12-30 03:19 43.88071 -66.47944 29197 ft 379 kts 238°
2025-12-30 03:20 43.80398 -66.70951 29189 ft 372 kts 238°
2025-12-30 03:23 43.70990 -67.00110 29203 ft 374 kts 245°
2025-12-30 03:25 43.68769 -67.29291 29199 ft 382 kts 253°
2025-12-30 03:27 43.65230 -67.61320 29191 ft 364 kts 241°
2025-12-30 03:29 43.59092 -67.84415 29196 ft 367 kts 242°
2025-12-30 03:31 43.52033 -68.10842 29208 ft 368 kts 242°
2025-12-30 03:33 43.44880 -68.37325 29213 ft 371 kts 242°
2025-12-30 03:35 43.37581 -68.64057 29219 ft 376 kts 243°
2025-12-30 03:37 43.30121 -68.91080 29231 ft 381 kts 243°
2025-12-30 03:39 43.22507 -69.18361 29244 ft 386 kts 244°
2025-12-30 03:41 43.14721 -69.45949 29255 ft 390 kts 244°
2025-12-30 03:43 43.06819 -69.73643 29270 ft 392 kts 245°
2025-12-30 03:45 42.98787 -70.01485 29285 ft 395 kts 245°
2025-12-30 03:47 42.90632 -70.29444 29289 ft 398 kts 245°
2025-12-30 03:49 42.82693 -70.56370 29291 ft 401 kts 246°
2025-12-30 03:51 42.74306 -70.84513 29317 ft 402 kts 246°
2025-12-30 03:52 42.66898 -71.09116 29340 ft 402 kts 246°
2025-12-30 03:55 42.57286 -71.40699 29360 ft 402 kts 246°
2025-12-30 03:57 42.48679 -71.68657 29390 ft 403 kts 246°
2025-12-30 03:59 42.38857 -72.00207 29358 ft 405 kts 246°
2025-12-30 04:01 42.31136 -72.24748 29408 ft 405 kts 246°
2025-12-30 04:03 42.22261 -72.52680 29415 ft 405 kts 246°
2025-12-30 04:05 42.11555 -72.79086 29432 ft 405 kts 232°
2025-12-30 04:07 41.96922 -73.02260 29434 ft 408 kts 232°
2025-12-30 04:09 41.82180 -73.25512 29437 ft 410 kts 232°
2025-12-30 04:11 41.65505 -73.51594 29502 ft 410 kts 232°
2025-12-30 04:13 41.52514 -73.71758 29518 ft 410 kts 232°
2025-12-30 04:15 41.37602 -73.94738 29521 ft 410 kts 232°
2025-12-30 04:17 41.22697 -74.17532 29545 ft 407 kts 232°
2025-12-30 04:19 41.07822 -74.40111 29579 ft 406 kts 232°
2025-12-30 04:20 40.94764 -74.59794 29636 ft 406 kts 232°